Location: Artiguedieu
(43.5000°N, 0.5454°E)
Time: 09:48:14
(UTC+00:00)

Vanguard 1 Rocket - Pass Details

Date: 02 August 2021
Orbit: 650 x 4226 km, 34.3° (Epoch: 24 September)

Event Time Altitude Azimuth Distance (km) Brightness Sun altitude
Rises 10:23:18 0° 243° (WSW) 8,114 12.1 56.5°
Reaches altitude 10° 10:29:38 10° 240° (WSW) 6,715 11.8 57.3°
Maximum altitude 10:48:15 52° 172° (S) 2,774 11.7 59.6°
Drops below altitude 10° 10:58:05 10° 99° (E) 3,723 11.0 60.6°
Sets 11:00:31 0° 94° (E) 4,384 11.1 60.9°
